Dewpoint
56 56 55 55 55 55 55 55 55 55 55 56 56 56 57 57 57 54 39 38 46 61 66 43 50 42 50 59 65 64 56 54 53 53 55 55 53 56 58 57 57 58 60 61 66
56 56 56 56 56 56 55 55 55 55 55 55 56 56 57 57 53 47 48 59 62 64 45 41 41 46 53 60 61 61 56 56 59 59 57 52 53 54 55 55 57 58 62 64 65
57 57 57 56 55 56 55 55 55 55 55 55 56 56 56 56 47 34 61 63 65 67 37 44 50 50 52 58 61 61 56 58 57 59 60 60 55 53 54 54 57 60 61 63 61
58 57 57 57 57 56 55 56 56 56 55 55 56 56 57 54 29 42 65 64 68 51 31 44 50 50 52 54 60 57 59 59 59 59 60 58 59 54 52 55 59 61 61 61 61
57 57 57 57 57 57 57 56 56 56 55 56 56 56 52 40 35 46 70 64 58 31 23 38 50 50 49 56 58 58 59 59 60 60 60 59 58 56 55 57 60 60 60 60 60
57 57 57 57 57 56 57 56 56 56 55 56 56 56 48 21 33 54 58 51 36 19 14 38 48 48 47 52 56 59 60 59 59 60 60 60 59 59 57 57 59 59 59 59 61
57 57 57 57 56 56 56 56 55 55 56 56 56 54 46 20 47 50 44 37 32 18 16 25 36 42 42 53 61 61 58 59 60 61 60 61 57 55 56 57 58 59 59 60 61
57 56 56 56 56 56 56 55 55 55 56 56 56 51 38 37 42 38 49 29 26 24 18 35 33 38 38 58 58 56 59 54 59 60 60 59 53 57 55 54 56 56 58 58 59
57 56 56 56 56 55 55 54 55 55 57 56 50 47 40 50 40 39 45 21 18 17 24 23 34 34 37 51 53 55 52 52 55 59 60 58 55 57 55 52 52 51 52 55 59
57 56 56 56 54 53 52 54 55 55 56 54 51 40 36 34 30 32 36 21 15 14 18 22 29 27 29 37 41 50 52 52 53 56 59 56 56 57 56 53 51 51 56 57 58
56 56 55 54 53 52 50 45 37 36 49 37 34 36 37 36 29 25 25 29 24 25 23 32 27 26 25 32 49 52 53 53 55 57 58 56 57 58 59 58 54 51 53 56 57
56 55 54 53 52 52 49 30 34 38 31 40 43 43 43 40 29 29 31 30 28 24 30 27 25 27 30 43 52 53 52 52 55 58 57 56 56 59 59 59 58 58 51 54 56
56 56 54 52 52 49 42 37 37 39 32 31 38 39 36 30 25 27 27 27 30 28 27 26 26 28 50 52 52 51 51 52 52 55 56 56 54 56 58 59 60 59 58 54 56
56 55 53 52 47 47 39 44 36 35 30 29 20 27 23 24 23 25 23 23 23 27 28 24 25 25 52 50 50 49 53 52 53 50 46 54 45 53 56 55 56 57 58 55 57
55 54 52 51 44 33 33 39 40 34 21 29 28 26 24 22 24 25 27 25 22 23 19 20 18 22 24 50 49 46 53 52 51 51 48 50 48 49 55 55 55 55 57 56 58
54 53 51 48 46 43 45 40 31 29 25 30 26 22 24 25 24 26 26 24 25 24 23 20 23 15 21 38 49 53 51 52 51 49 43 46 49 47 51 54 54 53 56 57 57
53 52 50 48 37 43 38 39 30 26 32 27 27 21 23 23 25 25 24 22 20 20 21 22 23 50 51 51 53 52 49 43 42 43 41 49 47 47 50 51 51 50 55 57 57
51 50 50 49 43 40 38 35 27 31 32 29 25 23 23 25 25 25 23 22 23 22 21 20 31 47 49 49 49 48 45 43 39 41 42 51 45 47 50 51 51 52 55 56 59
50 46 45 44 48 41 37 32 22 21 20 25 27 27 27 28 27 25 23 19 25 21 18 23 23 26 48 50 48 47 43 43 41 41 41 47 48 49 52 52 52 51 51 55 57
47 43 38 44 42 38 35 34 34 21 23 25 26 28 27 27 25 27 28 31 30 27 25 27 23 29 33 49 50 45 45 40 40 36 35 42 43 44 51 51 52 53 51 54 56
45 36 37 43 39 36 32 33 33 21 22 22 27 27 29 27 27 29 32 31 30 25 30 32 30 28 28 28 43 29 29 30 35 37 33 36 39 49 50 53 52 53 53 54 56
41 26 39 36 32 35 32 33 30 21 23 25 24 25 23 30 29 29 30 30 33 34 27 30 29 27 27 29 32 29 24 24 24 22 30 32 25 50 55 56 57 57 58 55 56
40 40 41 36 31 27 29 27 24 20 22 23 23 24 31 31 30 33 32 33 32 31 26 26 31 34 30 28 31 33 33 34 23 21 18 17 22 57 58 60 61 57 57 59 60
40 31 38 35 31 30 25 26 23 22 20 20 20 18 21 21 32 31 32 34 33 32 49 38 31 33 33 27 31 32 32 32 27 28 27 21 44 54 53 57 56 59 60 60 60
44 35 41 39 39 32 24 22 23 19 20 20 18 19 15 27 30 32 30 28 29 41 34 25 23 31 33 36 30 32 42 45 41 41 31 44 51 54 57 56 58 57 59 60 61
41 47 48 45 40 38 28 20 18 20 19 21 17 20 28 29 31 29 27 22 28 31 35 35 27 32 28 32 34 43 45 46 48 50 51 52 51 54 58 59 59 59 58 57 60
46 49 49 43 42 38 35 25 20 26 29 20 20 17 24 25 26 26 31 38 40 38 35 36 33 31 28 32 33 33 43 47 49 53 51 45 50 54 56 56 57 58 59 59 59
Lifted_Index
17 17 17 17 18 18 18 18 18 18 18 17 17 16 16 15 14 13 13 13 12 9 6 3 1 -1 -1 -2 -2 -1 -1 -0 -1 -1 -0 -0 0 -0 -1 -1 -2 -2 -2 -2 -2
16 17 17 17 17 17 18 18 18 18 18 18 17 17 16 15 14 13 12 12 10 8 5 2 0 -1 -2 -2 -2 -1 -0 -0 -1 -1 -0 0 0 -0 -1 -1 -1 -1 -2 -2 -2
16 16 16 17 17 17 18 18 18 18 18 18 18 17 16 15 13 11 11 10 9 7 4 1 -1 -2 -2 -2 -2 -1 -0 -0 -0 -1 -0 -0 -0 -0 -1 -1 -1 -1 -2 -2 -2
15 15 16 16 17 17 17 17 17 18 18 18 17 17 16 15 12 10 9 8 8 7 4 0 -1 -2 -2 -2 -2 -2 -1 -0 -0 -0 -0 -0 -0 -0 -0 -1 -1 -1 -1 -2 -1
15 15 16 16 17 17 17 17 17 17 17 17 17 16 16 14 11 9 7 7 8 7 3 -1 -1 -1 -1 -1 -2 -2 -1 -0 -0 -0 -1 -1 -1 -0 -0 -1 -1 -1 -1 -1 -1
15 16 16 17 17 17 17 17 17 17 17 17 16 16 14 12 10 8 7 8 10 8 3 -0 -0 0 0 -0 -1 -1 -1 -1 -0 -1 -1 -1 -1 -1 -1 -1 -1 -1 -1 -1 -1
16 16 17 17 17 17 17 17 17 16 16 16 15 14 13 11 9 8 7 8 10 9 5 2 1 3 2 1 -1 -1 -1 -0 -1 -1 -1 -1 -1 -1 -1 -1 -1 -1 -1 -1 -1
16 17 17 17 17 18 17 17 16 15 14 14 13 12 11 10 9 8 7 8 10 10 7 4 4 5 4 1 -1 -1 -1 -0 -0 -0 -1 -1 -1 -1 -1 -0 -0 -0 -0 -0 -1
17 17 17 17 18 18 17 15 13 12 12 11 10 9 9 8 8 7 7 7 9 9 7 5 4 5 4 1 -1 -1 -1 -0 0 0 -1 -1 -1 -1 -0 0 1 1 1 0 -0
17 17 17 17 17 17 15 13 11 10 9 9 8 8 7 7 7 7 6 6 7 7 5 4 3 3 3 2 -0 -1 -1 -0 0 0 -0 -1 -1 -1 -0 1 1 1 1 1 0
17 17 17 17 16 15 13 11 10 9 8 8 7 7 6 6 6 6 6 5 6 5 3 2 1 1 2 2 -0 -1 -1 -1 -0 -0 -0 -1 -1 -1 -0 1 2 2 2 1 1
16 16 16 16 15 13 11 10 9 9 8 7 6 6 5 5 5 5 5 4 4 4 3 3 1 1 1 0 -1 -2 -2 -1 -1 -1 -1 -0 -0 -1 -0 1 2 2 2 1 1
16 15 15 15 13 11 10 9 9 8 7 6 5 5 5 5 5 5 4 4 4 3 3 3 3 1 -1 -2 -2 -2 -2 -1 -1 -1 -0 -0 -0 -0 -0 1 1 2 2 1 1
15 15 14 13 11 10 9 9 8 7 5 4 4 4 4 4 4 4 4 4 3 3 3 3 4 2 -1 -2 -3 -2 -2 -1 -1 0 0 0 0 0 0 0 1 1 1 1 1
14 14 13 11 10 9 8 8 7 5 3 3 3 3 3 3 3 3 3 3 3 4 4 3 3 3 1 -1 -2 -2 -2 -1 -0 0 1 1 1 1 1 1 1 1 1 1 1
13 13 12 10 9 8 7 6 5 4 3 2 3 2 2 1 2 2 2 3 3 3 3 3 2 2 1 -1 -2 -2 -2 -1 -0 0 0 1 1 2 1 1 1 1 1 1 1
11 11 11 9 8 7 6 5 4 3 3 2 2 2 1 1 1 1 2 2 2 2 2 2 0 -1 -2 -2 -2 -2 -2 -1 -1 -0 -0 0 1 2 1 1 0 0 0 0 1
10 10 9 8 8 6 5 4 4 4 3 2 2 1 1 0 0 1 1 1 1 1 1 1 -1 -3 -4 -3 -3 -2 -2 -1 -1 -1 -1 -1 -0 0 0 -0 -0 0 0 0 0
9 8 8 7 7 5 4 4 4 4 3 2 1 1 0 0 0 0 0 -0 0 1 1 1 -1 -3 -4 -4 -3 -2 -2 -1 -1 -1 -1 -1 -1 -1 -1 -1 -1 -0 0 1 1
8 7 7 6 6 5 4 4 4 4 3 2 1 1 0 0 0 -0 -1 -1 -1 0 1 1 -0 -2 -3 -3 -3 -3 -2 -1 -1 -1 -1 -1 -1 -1 -1 -1 -1 -1 0 1 1
7 7 6 6 5 4 4 3 4 4 4 3 2 1 0 0 0 -0 -1 -1 -1 -0 0 0 -0 -1 -1 -2 -2 -2 -2 -1 -1 -0 -0 0 -0 -1 -1 -1 -1 -1 0 1 0
6 6 5 5 4 4 4 4 4 4 3 3 2 1 1 1 0 0 -0 -0 -0 0 0 0 0 -0 -1 -1 -1 -1 -1 0 0 0 1 1 0 -1 -2 -2 -1 -1 -0 -0 -0
5 5 5 4 4 4 4 4 4 3 3 3 3 2 2 1 0 0 0 -0 0 1 1 1 1 -0 -0 -0 -1 -1 -0 0 1 1 1 1 0 -2 -3 -3 -2 -2 -1 -1 -1
5 5 4 4 3 3 3 3 3 3 3 3 3 3 2 2 1 0 0 -0 0 0 1 1 1 0 -0 -0 -0 -0 -1 -0 0 0 1 0 -1 -2 -3 -3 -3 -2 -2 -2 -2
5 4 4 3 3 3 3 3 3 3 3 3 3 3 3 2 2 1 0 0 0 0 0 1 1 1 0 0 -0 -1 -2 -1 -1 -1 -1 -1 -2 -3 -3 -3 -3 -2 -2 -2 -2
5 4 3 3 3 3 3 3 3 3 3 3 3 4 4 3 2 1 1 1 0 0 0 0 1 1 1 0 -0 -1 -2 -2 -2 -2 -2 -3 -3 -3 -3 -2 -2 -2 -2 -1 -1
4 4 3 3 3 3 3 3 3 3 3 3 3 4 4 3 3 2 1 1 1 1 0 0 0 1 1 0 -0 -1 -2 -2 -3 -3 -3 -3 -3 -3 -3 -2 -2 -2 -1 -1 -0